Seattle Boeing, WA

12:43 AM PST on December 17, 2018 (GMT -0800)
Boeing Field-King County International

Weather History for KBFI - October, 2018

Change the Weather History Date:

Friday, October 26, 2018

  Actual Average Record
Temperature  
Mean Temperature 58 °F -  
Max Temperature 64 °F 56 °F 69 °F (1998)
Min Temperature 54 °F 44 °F 29 °F (1954)
Degree Days  
Heating Degree Days 7    
Growing Degree Days 8 (Base 50)    
Moisture  
Dew Point 53 °F    
Average Humidity 85    
Maximum Humidity 96    
Minimum Humidity 65    
Precipitation  
Precipitation 1.04 in - - ()
Sea Level Pressure  
Sea Level Pressure 29.97 in    
Wind  
Wind Speed 7 mph (SSE)    
Max Wind Speed 17 mph    
Max Gust Speed 24 mph    
Visibility 6 miles    
Events Rain    
Averages and records for this station are not official NWS values.
T = Trace of Precipitation, MM = Missing Value Source: NWS Daily Summary

Daily Weather History Graph

Daily Weather History Graph

Search for Another Location

Airport or City:

Astronomy

Oct. 26, 2018 Rise Set
Actual Time 7:44 AM PDT 6:01 PM PDT
Civil Twilight 7:12 AM PDT 6:32 PM PDT
Nautical Twilight 6:36 AM PDT 7:08 PM PDT
Astronomical Twilight 6:00 AM PDT 7:44 PM PDT
Moon 7:42 PM PDT (10/26) 9:46 AM PDT (10/26)
Length of Visible Light 11h 20m
Length of Day
10h 17m
Waning Gibbous, 95% of the Moon is Illuminated
Oct 26
Waning Gibbous
Oct 31
Last Quarter
Nov 7
New
Nov 15
First Quarter
Nov 22
Full

Hourly Weather History & Observations

Time (PDT) Temp. Dew Point Humidity Pressure Visibility Wind Dir Wind Speed Gust Speed Precip Events Conditions
12:10 AM 55.0 °F 53.1 °F 93% 29.93 in 4.0 mi SE 5.8 mph - N/A Rain Light Rain
12:17 AM 55.0 °F 53.1 °F 93% 29.94 in 4.0 mi SSE 4.6 mph - N/A Rain Light Rain
12:27 AM 55.0 °F 53.1 °F 93% 29.94 in 3.0 mi SE 5.8 mph - N/A Rain Light Rain
12:32 AM 55.0 °F 53.1 °F 93% 29.93 in 2.5 mi SE 5.8 mph - N/A Rain Light Rain
12:43 AM 55.0 °F 53.1 °F 93% 29.93 in 2.5 mi SE 6.9 mph - N/A Rain Light Rain
12:53 AM 55.0 °F 53.1 °F 93% 29.93 in 2.5 mi SE 6.9 mph - N/A Rain Light Rain
1:02 AM 55.0 °F 53.1 °F 93% 29.91 in 2.5 mi SSE 6.9 mph - N/A Rain Rain
1:15 AM 55.0 °F 53.1 °F 93% 29.91 in 3.0 mi SE 6.9 mph - N/A Rain Light Rain
1:23 AM 55.0 °F 53.1 °F 93% 29.90 in 2.5 mi SSE 5.8 mph - N/A Rain Light Rain
1:34 AM 55.0 °F 54.0 °F 96% 29.90 in 2.0 mi SE 4.6 mph - N/A Rain Rain
1:43 AM 55.0 °F 54.0 °F 96% 29.90 in 2.0 mi ESE 3.5 mph - N/A Rain Light Rain
1:53 AM 55.0 °F 54.0 °F 96% 29.91 in 2.0 mi Calm Calm - N/A Rain Rain
2:53 AM 55.0 °F 54.0 °F 96% 29.90 in 2.0 mi SSE 6.9 mph - N/A Rain Light Rain
3:53 AM 55.9 °F 54.0 °F 93% 29.90 in 2.0 mi SE 5.8 mph - N/A   Overcast
4:44 AM 57.0 °F 55.0 °F 93% 29.91 in 3.0 mi SE 6.9 mph - N/A Rain Light Rain
4:53 AM 57.0 °F 55.0 °F 93% 29.91 in 2.5 mi SSE 8.1 mph - N/A Rain Light Rain
5:08 AM 57.0 °F 55.0 °F 93% 29.91 in 3.0 mi SSE 8.1 mph - N/A   Overcast
5:17 AM 57.0 °F 55.0 °F 93% 29.91 in 2.5 mi SSE 5.8 mph - N/A   Overcast
5:25 AM 57.0 °F 55.0 °F 93% 29.91 in 2.5 mi SSE 5.8 mph - N/A Rain Light Rain
5:51 AM 57.2 °F 55.4 °F 94% 29.91 in 3.0 mi SSE 8.1 mph - N/A   Overcast
5:53 AM 57.0 °F 55.0 °F 93% 29.91 in 2.5 mi SSE 9.2 mph - N/A   Overcast
6:01 AM 57.0 °F 55.0 °F 93% 29.92 in 2.5 mi SSE 12.7 mph - N/A   Overcast
6:53 AM 57.9 °F 55.0 °F 90% 29.92 in 5.0 mi South 10.4 mph - N/A   Overcast
7:53 AM 60.1 °F 55.0 °F 83% 29.94 in 10.0 mi South 12.7 mph 20.7 mph N/A   Overcast
8:53 AM 60.1 °F 55.0 °F 83% 29.96 in 10.0 mi South 17.3 mph 24.2 mph 0.00 in   Overcast
9:53 AM 60.1 °F 55.9 °F 86% 29.98 in 7.0 mi South 10.4 mph - 1.04 in   Overcast
10:53 AM 62.1 °F 55.0 °F 78% 30.00 in 10.0 mi SSW 12.7 mph 21.9 mph N/A   Mostly Cloudy
11:53 AM 62.1 °F 54.0 °F 75% 30.01 in 210.0 mi South 12.7 mph 23.0 mph N/A   Mostly Cloudy
12:53 PM 62.1 °F 53.1 °F 72% 30.03 in 10.0 mi North - - N/A   Mostly Cloudy
1:53 PM 62.1 °F 52.0 °F 70% 30.04 in 10.0 mi North - - N/A   Mostly Cloudy
2:53 PM 62.1 °F 50.0 °F 65% 30.04 in 10.0 mi South 13.8 mph 20.7 mph N/A   Mostly Cloudy
3:53 PM 62.1 °F 50.0 °F 65% 30.05 in 10.0 mi SSW 8.1 mph - N/A   Mostly Cloudy
4:53 PM 61.0 °F 50.0 °F 67% 30.06 in 10.0 mi SSW 12.7 mph 17.3 mph N/A   Overcast
5:53 PM 59.0 °F 48.9 °F 69% 30.07 in 10.0 mi Calm Calm - N/A   Overcast
6:53 PM 57.9 °F 48.9 °F 72% 30.09 in 10.0 mi Calm Calm - N/A   Overcast
7:53 PM 57.0 °F 48.9 °F 74% 30.10 in 10.0 mi ENE 8.1 mph - N/A   Mostly Cloudy
8:53 PM 57.0 °F 46.9 °F 69% 30.11 in 10.0 mi ENE 4.6 mph - N/A   Overcast
9:53 PM 55.0 °F 46.9 °F 74% 30.12 in 10.0 mi Calm Calm - N/A   Overcast
10:53 PM 54.0 °F 48.0 °F 80% 30.11 in 10.0 mi Calm Calm - N/A   Scattered Clouds
11:53 PM 54.0 °F 46.9 °F 77% 30.15 in 10.0 mi NE 4.6 mph - N/A   Mostly Cloudy